,,,PA_Meas_PMT16A,,PR_Meas_QMR101_102,,RH_Meas_QMH101,,SR_Meas_QMS101,,TA_Meas_QMH101,,GenWind,,GenWind,
date,time,status,PA,status,PR,status,RH,status,SR,status,TA,status,DirAvg,status,SpdAvg,
2011-01-29, 00:00:04,VALID,1002.77,VALID,0,INVALID,163.716,VALID,0,VALID,23.9371,VALID,15,VALID,0.214844,
2011-01-29, 00:01:04,VALID,1002.78,VALID,0,INVALID,163.701,VALID,0,VALID,23.9159,VALID,15,VALID,0.312109,
2011-01-29, 00:02:04,VALID,1002.75,VALID,0,INVALID,163.701,VALID,0,VALID,23.8769,VALID,15,VALID,0.507422,
2011-01-29, 00:03:04,VALID,1002.76,VALID,0,INVALID,163.708,VALID,0,VALID,23.8185,VALID,16,VALID,0.614062,
2011-01-29, 00:04:04,VALID,1002.75,VALID,0,INVALID,163.716,VALID,0,VALID,23.7407,VALID,16,VALID,0.680078,
2011-01-29, 00:05:04,VALID,1002.76,VALID,0,INVALID,163.716,VALID,0,VALID,23.6823,VALID,16,VALID,0.0589844,
2011-01-29, 00:06:04,VALID,1002.75,VALID,0,INVALID,163.693,VALID,0,VALID,23.6434,VALID,16,VALID,0,
2011-01-29, 00:07:04,VALID,1002.72,VALID,0,INVALID,163.739,VALID,0,VALID,23.6452,VALID,16,VALID,0.151953,
2011-01-29, 00:08:04,VALID,1002.67,VALID,0,INVALID,163.739,VALID,0,VALID,23.585,VALID,16,VALID,0.142188,
2011-01-29, 00:09:04,VALID,1002.67,VALID,0,INVALID,163.754,VALID,0,VALID,23.546,VALID,16,VALID,0,
2011-01-29, 00:10:04,VALID,1002.65,VALID,0,INVALID,163.708,VALID,0.100563,VALID,23.5053,VALID,16,VALID,0,
2011-01-29, 00:11:04,VALID,1002.62,VALID,0,INVALID,163.723,VALID,0,VALID,23.5071,VALID,16,VALID,0,
2011-01-29, 00:12:04,VALID,1002.59,VALID,0,INVALID,163.762,VALID,0,VALID,23.4664,VALID,16,VALID,0.280469,
2011-01-29, 00:13:04,VALID,1002.59,VALID,0,INVALID,163.739,VALID,0.100563,VALID,23.447,VALID,16,VALID,0.271875,
2011-01-29, 00:14:04,VALID,1002.56,VALID,0,INVALID,163.739,VALID,0,VALID,23.408,VALID,16,VALID,0,
2011-01-29, 00:15:04,VALID,1002.57,VALID,0,INVALID,163.739,VALID,0.100563,VALID,23.3691,VALID,16,VALID,0.148438,
2011-01-29, 00:16:04,VALID,1002.56,VALID,0,INVALID,163.739,VALID,0,VALID,23.3709,VALID,16,VALID,0.542969,
2011-01-29, 00:17:04,VALID,1002.54,VALID,0,INVALID,163.754,VALID,0,VALID,23.332,VALID,16,VALID,0.727734,
2011-01-29, 00:18:04,VALID,1002.55,VALID,0,INVALID,163.769,VALID,0,VALID,23.3125,VALID,16,VALID,0.695703,
2011-01-29, 00:19:04,VALID,1002.6,VALID,0,INVALID,163.746,VALID,0,VALID,23.2541,VALID,16,VALID,0.553125,
2011-01-29, 00:20:04,VALID,1002.6,VALID,0,INVALID,163.762,VALID,0,VALID,23.1745,VALID,16,VALID,0.713672,
2011-01-29, 00:21:04,VALID,1002.59,VALID,0,INVALID,163.784,VALID,0,VALID,23.1551,VALID,16,VALID,0.568359,
2011-01-29, 00:22:04,VALID,1002.57,VALID,0,INVALID,163.746,VALID,0.100563,VALID,23.1374,VALID,10,VALID,0.378125,
2011-01-29, 00:23:04,VALID,1002.58,VALID,0,INVALID,163.746,VALID,0.100563,VALID,23.1374,VALID,10,VALID,0.244922,
2011-01-29, 00:24:04,VALID,1002.52,VALID,0,INVALID,163.754,VALID,0,VALID,23.1356,VALID,10,VALID,0.419141,
2011-01-29, 00:25:04,VALID,1002.51,VALID,0,INVALID,163.769,VALID,0,VALID,23.1568,VALID,359,VALID,0.295312,
2011-01-29, 00:26:04,VALID,1002.5,VALID,0,INVALID,163.762,VALID,0,VALID,23.1374,VALID,359,VALID,0.534766,
2011-01-29, 00:27:04,VALID,1002.5,VALID,0,INVALID,163.762,VALID,0,VALID,23.1763,VALID,359,VALID,0.0886719,
2011-01-29, 00:28:04,VALID,1002.49,VALID,0,INVALID,163.762,VALID,0,VALID,23.217,VALID,359,VALID,0.0121094,
2011-01-29, 00:29:04,VALID,1002.43,VALID,0,INVALID,163.769,VALID,0,VALID,23.2559,VALID,359,VALID,0.246875,
2011-01-29, 00:30:04,VALID,1002.44,VALID,0,INVALID,163.762,VALID,0,VALID,23.2347,VALID,359,VALID,0,
2011-01-29, 00:31:04,VALID,1002.42,VALID,0,INVALID,163.754,VALID,0,VALID,23.3143,VALID,359,VALID,0.407031,
2011-01-29, 00:32:04,VALID,1002.4,VALID,0,INVALID,163.762,VALID,0,VALID,23.3337,VALID,359,VALID,0.392188,
2011-01-29, 00:33:04,VALID,1002.37,VALID,0,INVALID,163.762,VALID,0,VALID,23.2931,VALID,359,VALID,0.309375,
2011-01-29, 00:34:04,VALID,1002.33,VALID,0,INVALID,163.731,VALID,0,VALID,23.3532,VALID,359,VALID,0.369922,
2011-01-29, 00:35:04,VALID,1002.32,VALID,0,INVALID,163.762,VALID,0,VALID,23.332,VALID,359,VALID,0.548828,
2011-01-29, 00:36:04,VALID,1002.31,VALID,0,INVALID,163.723,VALID,0,VALID,23.332,VALID,359,VALID,0.425781,
2011-01-29, 00:37:04,VALID,1002.34,VALID,0,INVALID,163.762,VALID,0,VALID,23.3532,VALID,356,VALID,0.668359,
2011-01-29, 00:38:04,VALID,1002.33,VALID,0,INVALID,163.762,VALID,0,VALID,23.3514,VALID,356,VALID,0.798828,
2011-01-29, 00:39:04,VALID,1002.34,VALID,0,INVALID,163.762,VALID,0,VALID,23.3709,VALID,356,VALID,0.495703,
2011-01-29, 00:40:04,VALID,1002.34,VALID,0,INVALID,163.762,VALID,0,VALID,23.3514,VALID,356,VALID,0.348437,
2011-01-29, 00:41:04,VALID,1002.31,VALID,0,INVALID,163.731,VALID,0,VALID,23.3709,VALID,356,VALID,0.317578,
2011-01-29, 00:42:04,VALID,1002.3,VALID,0,INVALID,163.739,VALID,0,VALID,23.3709,VALID,356,VALID,0.558594,
2011-01-29, 00:43:04,VALID,1002.29,VALID,0,INVALID,163.746,VALID,0,VALID,23.3709,VALID,356,VALID,0.222266,
2011-01-29, 00:44:04,VALID,1002.3,VALID,0,INVALID,163.762,VALID,0,VALID,23.3904,VALID,356,VALID,0.306641,
2011-01-29, 00:45:04,VALID,1002.28,VALID,0,INVALID,163.731,VALID,0,VALID,23.4293,VALID,356,VALID,0.432422,
2011-01-29, 00:46:04,VALID,1002.27,VALID,0,INVALID,163.731,VALID,0,VALID,23.47,VALID,356,VALID,0.478516,
2011-01-29, 00:47:04,VALID,1002.22,VALID,0,INVALID,163.731,VALID,0,VALID,23.4894,VALID,356,VALID,0.511719,
2011-01-29, 00:48:04,VALID,1002.18,VALID,0,INVALID,163.754,VALID,0,VALID,23.4293,VALID,357,VALID,0.626562,
2011-01-29, 00:49:04,VALID,1002.2,VALID,0,INVALID,163.739,VALID,0,VALID,23.4293,VALID,12,VALID,0.394531,
2011-01-29, 00:50:04,VALID,1002.19,VALID,0,INVALID,163.723,VALID,0,VALID,23.4487,VALID,12,VALID,0.247266,
2011-01-29, 00:51:04,VALID,1002.19,VALID,0,INVALID,163.723,VALID,0,VALID,23.4487,VALID,12,VALID,0,
2011-01-29, 00:52:04,VALID,1002.18,VALID,0,INVALID,163.731,VALID,0,VALID,23.4275,VALID,12,VALID,0.0257812,
2011-01-29, 00:53:04,VALID,1002.18,VALID,0,INVALID,163.716,VALID,0,VALID,23.4487,VALID,12,VALID,0.0722656,
2011-01-29, 00:54:04,VALID,1002.2,VALID,0,INVALID,163.746,VALID,0,VALID,23.47,VALID,12,VALID,0.213281,
2011-01-29, 00:55:04,VALID,1002.19,VALID,0,INVALID,163.739,VALID,0,VALID,23.4275,VALID,12,VALID,0,
2011-01-29, 00:56:04,VALID,1002.16,VALID,0,INVALID,163.739,VALID,0.100563,VALID,23.4293,VALID,12,VALID,0.117969,
2011-01-29, 00:57:04,VALID,1002.17,VALID,0,INVALID,163.762,VALID,0,VALID,23.4487,VALID,12,VALID,0,
2011-01-29, 00:58:04,VALID,1002.18,VALID,0,INVALID,163.739,VALID,0.100563,VALID,23.4275,VALID,12,VALID,0.111328,
2011-01-29, 00:59:04,VALID,1002.18,VALID,0,INVALID,163.754,VALID,0.100563,VALID,23.408,VALID,12,VALID,0.355078,
2011-01-29, 01:00:04,VALID,1002.16,VALID,0,INVALID,163.739,VALID,0.100563,VALID,23.408,VALID,12,VALID,0.545703,
2011-01-29, 01:01:04,VALID,1002.14,VALID,0,INVALID,163.754,VALID,0.100563,VALID,23.3886,VALID,12,VALID,0.488281,
2011-01-29, 01:02:04,VALID,1002.12,VALID,0,INVALID,163.754,VALID,0,VALID,23.3497,VALID,12,VALID,0.449219,
2011-01-29, 01:03:04,VALID,1002.11,VALID,0,INVALID,163.731,VALID,0.100563,VALID,23.332,VALID,12,VALID,0.391406,
2011-01-29, 01:04:04,VALID,1002.1,VALID,0,INVALID,163.731,VALID,0,VALID,23.3107,VALID,12,VALID,0.495313,
2011-01-29, 01:05:04,VALID,1002.1,VALID,0,INVALID,163.754,VALID,0.100563,VALID,23.3107,VALID,11,VALID,0.305469,
2011-01-29, 01:06:04,VALID,1002.08,VALID,0,INVALID,163.746,VALID,0,VALID,23.2913,VALID,11,VALID,0.439063,
2011-01-29, 01:07:04,VALID,1002.06,VALID,0,INVALID,163.739,VALID,0.100563,VALID,23.2718,VALID,11,VALID,0.301172,
2011-01-29, 01:08:04,VALID,1001.98,VALID,0,INVALID,163.731,VALID,0,VALID,23.2736,VALID,11,VALID,0.498437,
2011-01-29, 01:09:04,VALID,1001.97,VALID,0,INVALID,163.777,VALID,0,VALID,23.2541,VALID,11,VALID,0.198437,
2011-01-29, 01:10:04,VALID,1001.97,VALID,0,INVALID,163.746,VALID,0,VALID,23.2152,VALID,11,VALID,0.261328,
2011-01-29, 01:11:04,VALID,1001.92,VALID,0,INVALID,163.769,VALID,0,VALID,23.1957,VALID,11,VALID,0.322656,
2011-01-29, 01:12:04,VALID,1001.92,VALID,0,INVALID,163.762,VALID,0,VALID,23.1975,VALID,11,VALID,0.551562,
2011-01-29, 01:13:04,VALID,1001.89,VALID,0,INVALID,163.762,VALID,0,VALID,23.1374,VALID,11,VALID,0.637109,
2011-01-29, 01:14:04,VALID,1001.87,VALID,0,INVALID,163.777,VALID,0,VALID,23.1374,VALID,11,VALID,0.486328,
2011-01-29, 01:15:04,VALID,1001.82,VALID,0,INVALID,163.746,VALID,0,VALID,23.1179,VALID,11,VALID,0.438281,
2011-01-29, 01:16:04,VALID,1001.78,VALID,0,INVALID,163.777,VALID,0,VALID,23.1374,VALID,11,VALID,0.426172,
2011-01-29, 01:17:04,VALID,1001.78,VALID,0,INVALID,163.769,VALID,0,VALID,23.1197,VALID,11,VALID,0.748828,
2011-01-29, 01:18:04,VALID,1001.77,VALID,0,INVALID,163.777,VALID,0,VALID,23.079,VALID,11,VALID,0.478516,
2011-01-29, 01:19:04,VALID,1001.74,VALID,0,INVALID,163.762,VALID,0,VALID,23.1002,VALID,11,VALID,0.0597656,
2011-01-29, 01:20:04,VALID,1001.74,VALID,0,INVALID,163.784,VALID,0,VALID,23.1002,VALID,11,VALID,0.126563,
2011-01-29, 01:21:04,VALID,1001.7,VALID,0,INVALID,163.784,VALID,0,VALID,23.079,VALID,11,VALID,0,
2011-01-29, 01:22:04,VALID,1001.64,VALID,0,INVALID,163.754,VALID,0,VALID,23.0807,VALID,11,VALID,0.497266,
2011-01-29, 01:23:04,VALID,1001.58,VALID,0,INVALID,163.762,VALID,0,VALID,23.0401,VALID,11,VALID,0.530078,
2011-01-29, 01:24:04,VALID,1001.56,VALID,0,INVALID,163.784,VALID,0,VALID,23.0595,VALID,11,VALID,0.484766,
2011-01-29, 01:25:04,VALID,1001.51,VALID,0,INVALID,163.769,VALID,0,VALID,23.079,VALID,6,VALID,0.607813,
2011-01-29, 01:26:04,VALID,1001.46,VALID,0,INVALID,163.777,VALID,0,VALID,23.0595,VALID,4,VALID,0.628906,
2011-01-29, 01:27:04,VALID,1001.41,VALID,0,INVALID,163.784,VALID,0,VALID,23.079,VALID,4,VALID,0.476953,
2011-01-29, 01:28:04,VALID,1001.4,VALID,0,INVALID,163.769,VALID,0,VALID,23.079,VALID,4,VALID,0.607813,
2011-01-29, 01:29:04,VALID,1001.36,VALID,0,INVALID,163.777,VALID,0,VALID,23.0772,VALID,2,VALID,0.75625,
2011-01-29, 01:30:04,VALID,1001.35,VALID,0,INVALID,163.777,VALID,0,VALID,23.1374,VALID,360,VALID,0.650391,
2011-01-29, 01:31:04,VALID,1001.32,VALID,0,INVALID,163.754,VALID,0,VALID,23.1763,VALID,343,VALID,0.800391,
2011-01-29, 01:32:04,VALID,1001.33,VALID,0,INVALID,163.746,VALID,0,VALID,23.2541,VALID,352,VALID,0.598437,
2011-01-29, 01:33:04,VALID,1001.3,VALID,0,INVALID,163.777,VALID,0,VALID,23.3532,VALID,350,VALID,0.656641,
2011-01-29, 01:34:04,VALID,1001.29,VALID,0,INVALID,163.723,VALID,0,VALID,23.4505,VALID,349,VALID,0.783984,
2011-01-29, 01:35:04,VALID,1001.28,VALID,0,INVALID,163.723,VALID,0,VALID,23.5089,VALID,351,VALID,0.689844,
2011-01-29, 01:36:04,VALID,1001.27,VALID,0,INVALID,163.723,VALID,0,VALID,23.5655,VALID,343,VALID,0.642969,
2011-01-29, 01:37:04,VALID,1001.25,VALID,0,INVALID,163.708,VALID,0,VALID,23.6257,VALID,347,VALID,0.955078,
2011-01-29, 01:38:04,VALID,1001.23,VALID,0,INVALID,163.716,VALID,0,VALID,23.723,VALID,261,VALID,0.495313,
2011-01-29, 01:39:04,VALID,1001.22,VALID,0,INVALID,163.708,VALID,0,VALID,23.7814,VALID,345,VALID,0.395703,
2011-01-29, 01:40:04,VALID,1001.19,VALID,0,INVALID,163.731,VALID,0,VALID,23.8575,VALID,360,VALID,0.645703,
2011-01-29, 01:41:04,VALID,1001.21,VALID,0,INVALID,163.708,VALID,0,VALID,23.9566,VALID,337,VALID,0.179688,
2011-01-29, 01:42:04,VALID,1001.22,VALID,0,INVALID,163.701,VALID,0,VALID,23.9742,VALID,342,VALID,0.340625,
2011-01-29, 01:43:04,VALID,1001.22,VALID,0,INVALID,163.678,VALID,0,VALID,24.0539,VALID,357,VALID,0.578906,
2011-01-29, 01:44:04,VALID,1001.2,VALID,0,INVALID,163.716,VALID,0,VALID,24.1105,VALID,352,VALID,0.966016,
2011-01-29, 01:45:04,VALID,1001.15,VALID,0,INVALID,163.662,VALID,0,VALID,24.1884,VALID,317,VALID,0.331641,
2011-01-29, 01:46:04,VALID,1001.12,VALID,0,INVALID,163.708,VALID,0,VALID,24.2486,VALID,317,VALID,0,
2011-01-29, 01:47:04,VALID,1001.12,VALID,0,INVALID,163.662,VALID,0,VALID,24.2468,VALID,349,VALID,0.752344,
2011-01-29, 01:48:04,VALID,1001.1,VALID,0,INVALID,163.693,VALID,0,VALID,24.2857,VALID,351,VALID,0.569531,
2011-01-29, 01:49:04,VALID,1001.09,VALID,0,INVALID,163.701,VALID,0,VALID,24.3246,VALID,351,VALID,0.548047,
2011-01-29, 01:50:04,VALID,1001.06,VALID,0,INVALID,163.647,VALID,0,VALID,24.3459,VALID,351,VALID,0.362891,
2011-01-29, 01:51:04,VALID,1001.01,VALID,0,INVALID,163.678,VALID,0,VALID,24.3052,VALID,347,VALID,0.740625,
2011-01-29, 01:52:04,VALID,1001,VALID,0,INVALID,163.678,VALID,0,VALID,24.2662,VALID,347,VALID,0.549609,
2011-01-29, 01:53:04,VALID,1000.95,VALID,0,INVALID,163.678,VALID,0,VALID,24.307,VALID,342,VALID,0.230078,
2011-01-29, 01:54:04,VALID,1000.94,VALID,0,INVALID,163.67,VALID,0,VALID,24.2662,VALID,354,VALID,1.08906,
2011-01-29, 01:55:04,VALID,1000.91,VALID,0,INVALID,163.67,VALID,0,VALID,24.3265,VALID,347,VALID,0.45,
2011-01-29, 01:56:04,VALID,1000.9,VALID,0,INVALID,163.693,VALID,0,VALID,24.3441,VALID,348,VALID,0.766797,
2011-01-29, 01:57:04,VALID,1000.87,VALID,0,INVALID,163.67,VALID,0,VALID,24.3636,VALID,327,VALID,0.483594,
2011-01-29, 01:58:04,VALID,1000.86,VALID,0,INVALID,163.662,VALID,0,VALID,24.3441,VALID,341,VALID,0.600391,
2011-01-29, 01:59:04,VALID,1000.79,VALID,0,INVALID,163.662,VALID,0,VALID,24.3441,VALID,343,VALID,0.702734,
2011-01-29, 02:00:04,VALID,1000.77,VALID,0,INVALID,163.639,VALID,0,VALID,24.383,VALID,342,VALID,0.552344,
2011-01-29, 02:01:04,VALID,1000.77,VALID,0,INVALID,163.678,VALID,0,VALID,24.4238,VALID,342,VALID,0.553906,
2011-01-29, 02:02:04,VALID,1000.75,VALID,0,INVALID,163.655,VALID,0,VALID,24.4025,VALID,343,VALID,0.633984,
2011-01-29, 02:03:04,VALID,1000.74,VALID,0,INVALID,163.639,VALID,0,VALID,24.422,VALID,350,VALID,0.642187,
2011-01-29, 02:04:04,VALID,1000.74,VALID,0,INVALID,163.662,VALID,0,VALID,24.4628,VALID,349,VALID,0.771094,
2011-01-29, 02:05:04,VALID,1000.73,VALID,0,INVALID,163.639,VALID,0,VALID,24.4804,VALID,2,VALID,0.648828,
2011-01-29, 02:06:04,VALID,1000.76,VALID,0,INVALID,163.647,VALID,0,VALID,24.4998,VALID,15,VALID,0.534766,
2011-01-29, 02:07:04,VALID,1000.77,VALID,0,INVALID,160.504,VALID,0,VALID,24.5406,VALID,357,VALID,0.790625,
2011-01-29, 02:08:04,VALID,1000.8,VALID,0,INVALID,156.873,VALID,0,VALID,24.599,VALID,358,VALID,0.236719,
2011-01-29, 02:09:04,VALID,1000.81,VALID,0,INVALID,157.109,VALID,0,VALID,24.5388,VALID,358,VALID,0.227734,
2011-01-29, 02:10:04,VALID,1000.8,VALID,0,INVALID,154.965,VALID,0,VALID,24.5388,VALID,337,VALID,0.341016,
2011-01-29, 02:11:04,VALID,1000.8,VALID,0,INVALID,156.377,VALID,0.100563,VALID,24.5174,VALID,284,VALID,0.0175781,
2011-01-29, 02:12:04,VALID,1000.85,VALID,0,INVALID,158.627,VALID,0.100563,VALID,24.4998,VALID,284,VALID,0.217969,
2011-01-29, 02:13:04,VALID,1000.81,VALID,0,INVALID,163.586,VALID,0,VALID,24.4609,VALID,284,VALID,0.158594,
2011-01-29, 02:14:04,VALID,1000.81,VALID,0,INVALID,163.655,VALID,0.100563,VALID,24.4201,VALID,284,VALID,0,
2011-01-29, 02:15:04,VALID,1000.81,VALID,0,INVALID,163.67,VALID,0.100563,VALID,24.383,VALID,284,VALID,0.493359,
2011-01-29, 02:16:04,VALID,1000.82,VALID,0,INVALID,163.678,VALID,0.100563,VALID,24.2662,VALID,284,VALID,0.550781,
2011-01-29, 02:17:04,VALID,1000.76,VALID,0,INVALID,163.67,VALID,0,VALID,24.1494,VALID,345,VALID,0.585547,
2011-01-29, 02:18:04,VALID,1000.75,VALID,0,INVALID,163.701,VALID,0.100563,VALID,24.0114,VALID,7,VALID,0.641797,
2011-01-29, 02:19:04,VALID,1000.71,VALID,0,INVALID,163.708,VALID,0,VALID,23.9159,VALID,9,VALID,0.613281,
2011-01-29, 02:20:04,VALID,1000.7,VALID,0,INVALID,163.739,VALID,0,VALID,23.8185,VALID,9,VALID,0.399219,
2011-01-29, 02:21:04,VALID,1000.63,VALID,0,INVALID,163.731,VALID,0.100563,VALID,23.7407,VALID,9,VALID,0.459766,
2011-01-29, 02:22:04,VALID,1000.6,VALID,0,INVALID,163.731,VALID,0.100563,VALID,23.6416,VALID,8,VALID,0.624609,
2011-01-29, 02:23:04,VALID,1000.59,VALID,0,INVALID,163.754,VALID,0,VALID,23.6221,VALID,350,VALID,0.395703,
2011-01-29, 02:24:04,VALID,1000.54,VALID,0,INVALID,163.701,VALID,0,VALID,23.6239,VALID,350,VALID,0.616016,
2011-01-29, 02:25:04,VALID,1000.51,VALID,0,INVALID,163.723,VALID,0,VALID,23.6062,VALID,350,VALID,0.416406,
2011-01-29, 02:26:04,VALID,1000.48,VALID,0,INVALID,163.723,VALID,0,VALID,23.5478,VALID,350,VALID,0.531641,
2011-01-29, 02:27:04,VALID,1000.44,VALID,0,INVALID,163.739,VALID,0,VALID,23.5089,VALID,350,VALID,0.509766,
2011-01-29, 02:28:04,VALID,1000.43,VALID,0,INVALID,163.746,VALID,0,VALID,23.5089,VALID,351,VALID,0.690234,
2011-01-29, 02:29:05,VALID,1000.4,VALID,0,INVALID,163.731,VALID,0,VALID,23.4877,VALID,351,VALID,0.394531,
2011-01-29, 02:30:05,VALID,1000.39,VALID,0,INVALID,163.723,VALID,0,VALID,23.5071,VALID,343,VALID,0.38125,
2011-01-29, 02:31:05,VALID,1000.42,VALID,0,INVALID,163.723,VALID,0,VALID,23.5673,VALID,342,VALID,0.535937,
2011-01-29, 02:32:05,VALID,1000.43,VALID,0,INVALID,163.723,VALID,0,VALID,23.585,VALID,342,VALID,0.310937,
2011-01-29, 02:33:05,VALID,1000.43,VALID,0,INVALID,163.716,VALID,0,VALID,23.6257,VALID,352,VALID,0.682031,
2011-01-29, 02:34:05,VALID,1000.43,VALID,0,INVALID,163.731,VALID,0,VALID,23.6646,VALID,331,VALID,0.183203,
2011-01-29, 02:35:05,VALID,1000.41,VALID,0,INVALID,163.701,VALID,0,VALID,23.7053,VALID,331,VALID,0,
2011-01-29, 02:36:05,VALID,1000.41,VALID,0,INVALID,163.701,VALID,0,VALID,23.6823,VALID,331,VALID,0,
2011-01-29, 02:37:05,VALID,1000.38,VALID,0,INVALID,163.731,VALID,0,VALID,23.723,VALID,314,VALID,0.346484,
2011-01-29, 02:38:05,VALID,1000.35,VALID,0,INVALID,163.739,VALID,0,VALID,23.7425,VALID,310,VALID,0.255469,
2011-01-29, 02:39:05,VALID,1000.34,VALID,0,INVALID,163.693,VALID,0,VALID,23.8009,VALID,324,VALID,0.0933594,
2011-01-29, 02:40:05,VALID,1000.32,VALID,0,INVALID,163.678,VALID,0,VALID,23.8185,VALID,327,VALID,0.0871094,
2011-01-29, 02:41:05,VALID,1000.36,VALID,0,INVALID,163.723,VALID,0.100563,VALID,23.8185,VALID,327,VALID,0,
2011-01-29, 02:42:05,VALID,1000.36,VALID,0,INVALID,163.723,VALID,0.100563,VALID,23.838,VALID,327,VALID,0.0363281,
2011-01-29, 02:43:05,VALID,1000.39,VALID,0,INVALID,163.708,VALID,0,VALID,23.8575,VALID,277,VALID,0.610547,
2011-01-29, 02:44:05,VALID,1000.36,VALID,0,INVALID,163.716,VALID,0.100563,VALID,23.8964,VALID,300,VALID,0.605469,
2011-01-29, 02:45:05,VALID,1000.38,VALID,0,INVALID,163.678,VALID,0,VALID,23.914,VALID,299,VALID,0.7875,
2011-01-29, 02:46:05,VALID,1000.39,VALID,0,INVALID,163.67,VALID,0,VALID,24.0132,VALID,311,VALID,0.0785156,
2011-01-29, 02:47:05,VALID,1000.39,VALID,0,INVALID,163.685,VALID,0.100563,VALID,24.0521,VALID,307,VALID,0.234375,
2011-01-29, 02:48:05,VALID,1000.4,VALID,0,INVALID,163.685,VALID,0,VALID,24.0697,VALID,291,VALID,0.348828,
2011-01-29, 02:49:05,VALID,1000.41,VALID,0,INVALID,163.685,VALID,0,VALID,24.13,VALID,294,VALID,0.359375,
2011-01-29, 02:50:05,VALID,1000.41,VALID,0,INVALID,163.685,VALID,0.100563,VALID,24.1105,VALID,294,VALID,0.0945313,
2011-01-29, 02:51:05,VALID,1000.38,VALID,0,INVALID,163.678,VALID,0,VALID,24.0892,VALID,294,VALID,0.252344,
2011-01-29, 02:52:05,VALID,1000.4,VALID,0,INVALID,163.708,VALID,0,VALID,24.1105,VALID,294,VALID,0.140234,
2011-01-29, 02:53:05,VALID,1000.43,VALID,0,INVALID,163.693,VALID,0.100563,VALID,24.0697,VALID,294,VALID,0.252734,
2011-01-29, 02:54:05,VALID,1000.45,VALID,0,INVALID,163.67,VALID,0.100563,VALID,24.0114,VALID,294,VALID,0.351953,
2011-01-29, 02:55:05,VALID,1000.46,VALID,0,INVALID,163.708,VALID,0.100563,VALID,23.914,VALID,294,VALID,0.516406,
2011-01-29, 02:56:05,VALID,1000.54,VALID,0,INVALID,163.701,VALID,0,VALID,23.838,VALID,294,VALID,0.524219,
2011-01-29, 02:57:05,VALID,1000.52,VALID,0,INVALID,163.731,VALID,0.100563,VALID,23.7425,VALID,355,VALID,0.686328,
2011-01-29, 02:58:05,VALID,1000.52,VALID,0,INVALID,163.716,VALID,0,VALID,23.6434,VALID,358,VALID,0.799609,
2011-01-29, 02:59:05,VALID,1000.5,VALID,0,INVALID,163.723,VALID,0,VALID,23.546,VALID,358,VALID,0.573047,
2011-01-29, 03:00:05,VALID,1000.55,VALID,0,INVALID,163.723,VALID,0,VALID,23.4877,VALID,358,VALID,0.477344,
2011-01-29, 03:01:05,VALID,1000.52,VALID,0,INVALID,163.762,VALID,0,VALID,23.4293,VALID,358,VALID,0.561719,
2011-01-29, 03:02:05,VALID,1000.51,VALID,0,INVALID,163.754,VALID,0.100563,VALID,23.3514,VALID,358,VALID,0.646484,
2011-01-29, 03:03:05,VALID,1000.49,VALID,0,INVALID,163.731,VALID,0,VALID,23.3125,VALID,358,VALID,0.557422,
2011-01-29, 03:04:05,VALID,1000.48,VALID,0,INVALID,163.739,VALID,0,VALID,23.2541,VALID,358,VALID,0.482422,
2011-01-29, 03:05:05,VALID,1000.45,VALID,0,INVALID,163.746,VALID,0.100563,VALID,23.2541,VALID,358,VALID,0.298438,
2011-01-29, 03:06:05,VALID,1000.43,VALID,0,INVALID,163.762,VALID,0,VALID,23.2152,VALID,358,VALID,0.333203,
2011-01-29, 03:07:05,VALID,1000.47,VALID,0,INVALID,163.777,VALID,0.100563,VALID,23.1763,VALID,358,VALID,0.245312,
2011-01-29, 03:08:05,VALID,1000.47,VALID,0,INVALID,163.746,VALID,0,VALID,23.1763,VALID,358,VALID,0.232422,
2011-01-29, 03:09:05,VALID,1000.53,VALID,0,INVALID,163.769,VALID,0.100563,VALID,23.1745,VALID,353,VALID,0.307031,
2011-01-29, 03:10:05,VALID,1000.55,VALID,0,INVALID,163.754,VALID,0,VALID,23.1568,VALID,352,VALID,0.280078,
2011-01-29, 03:11:05,VALID,1000.53,VALID,0,INVALID,163.769,VALID,0,VALID,23.1957,VALID,352,VALID,0.258203,
2011-01-29, 03:12:05,VALID,1000.53,VALID,0,INVALID,163.754,VALID,0,VALID,23.194,VALID,352,VALID,0.383594,
2011-01-29, 03:13:05,VALID,1000.52,VALID,0,INVALID,163.746,VALID,0,VALID,23.2559,VALID,353,VALID,0.362891,
2011-01-29, 03:14:05,VALID,1000.53,VALID,0,INVALID,163.716,VALID,0,VALID,23.2347,VALID,353,VALID,0.161328,
2011-01-29, 03:15:05,VALID,1000.53,VALID,0,INVALID,163.777,VALID,0,VALID,23.2152,VALID,353,VALID,0.306641,
2011-01-29, 03:16:05,VALID,1000.51,VALID,0,INVALID,163.762,VALID,0,VALID,23.2364,VALID,353,VALID,0.320313,
2011-01-29, 03:17:05,VALID,1000.51,VALID,0,INVALID,163.769,VALID,0,VALID,23.1957,VALID,357,VALID,0.586328,
2011-01-29, 03:18:05,VALID,1000.52,VALID,0,INVALID,163.777,VALID,0,VALID,23.1763,VALID,357,VALID,0.205078,
2011-01-29, 03:19:05,VALID,1000.52,VALID,0,INVALID,163.784,VALID,0,VALID,23.1763,VALID,357,VALID,0.215625,
2011-01-29, 03:20:05,VALID,1000.51,VALID,0,INVALID,163.754,VALID,0,VALID,23.178,VALID,357,VALID,0,
2011-01-29, 03:21:05,VALID,1000.53,VALID,0,INVALID,163.777,VALID,0,VALID,23.178,VALID,357,VALID,0.375391,
2011-01-29, 03:22:05,VALID,1000.54,VALID,0,INVALID,163.754,VALID,0,VALID,23.1568,VALID,357,VALID,0,
2011-01-29, 03:23:05,VALID,1000.58,VALID,0,INVALID,163.762,VALID,0,VALID,23.178,VALID,357,VALID,0.217187,
2011-01-29, 03:24:05,VALID,1000.57,VALID,0,INVALID,163.739,VALID,0,VALID,23.1374,VALID,357,VALID,0,
2011-01-29, 03:25:05,VALID,1000.59,VALID,0,INVALID,163.784,VALID,0,VALID,23.1568,VALID,357,VALID,0.00507812,
2011-01-29, 03:26:05,VALID,1000.58,VALID,0,INVALID,163.762,VALID,0,VALID,23.1179,VALID,357,VALID,0.487891,
2011-01-29, 03:27:05,VALID,1000.55,VALID,0,INVALID,163.769,VALID,0,VALID,23.0984,VALID,359,VALID,0.758984,
2011-01-29, 03:28:05,VALID,1000.53,VALID,0,INVALID,163.739,VALID,0,VALID,23.0984,VALID,359,VALID,0.432813,
2011-01-29, 03:29:05,VALID,1000.52,VALID,0,INVALID,163.777,VALID,0,VALID,23.1002,VALID,359,VALID,0.269922,
2011-01-29, 03:30:05,VALID,1000.5,VALID,0,INVALID,163.754,VALID,0,VALID,23.0613,VALID,359,VALID,0.0328125,
2011-01-29, 03:31:05,VALID,1000.49,VALID,0,INVALID,163.777,VALID,0,VALID,23.0418,VALID,359,VALID,0.239844,
2011-01-29, 03:32:05,VALID,1000.51,VALID,0,INVALID,163.784,VALID,0,VALID,23.0224,VALID,359,VALID,0.371875,
2011-01-29, 03:33:05,VALID,1000.52,VALID,0,INVALID,163.784,VALID,0,VALID,23.0224,VALID,359,VALID,0.280469,
2011-01-29, 03:34:05,VALID,1000.52,VALID,0,INVALID,163.777,VALID,0,VALID,22.9834,VALID,359,VALID,0.00585938,
2011-01-29, 03:35:05,VALID,1000.56,VALID,0,INVALID,163.769,VALID,0,VALID,22.9817,VALID,359,VALID,0,
2011-01-29, 03:36:05,VALID,1000.56,VALID,0,INVALID,163.754,VALID,0,VALID,22.9817,VALID,359,VALID,0.053125,
2011-01-29, 03:37:05,VALID,1000.63,VALID,0,INVALID,163.777,VALID,0,VALID,23.0224,VALID,359,VALID,0.248437,
2011-01-29, 03:38:05,VALID,1000.63,VALID,0,INVALID,163.784,VALID,0,VALID,22.98,VALID,359,VALID,0.157422,
2011-01-29, 03:39:05,VALID,1000.63,VALID,0,INVALID,163.792,VALID,0,VALID,23.0224,VALID,359,VALID,0.00820312,